User: anonymous   Login
Location: Johnson City
(36.3130°N, 82.3540°W)
Time: 12:26:22
(UTC-05:00)
Language:

Hubble Space Telescope - Orbit

View from above orbital plane
View from above orbital plane
View from above satellite
View from above satellite

Ground track
Ground track

The orbit data is extracted from the following two-line orbital elements,

1 20580U 90037B   22019.61743372  .00001719  00000-0  92331-4 0  9991
2 20580  28.4709  74.5064 0002399 227.4172 266.3383 15.09954939543693
Epoch (UTC): 19 January 2022 14:49:06
Eccentricity: 0.0002399
inclination: 28.4709°
perigee height: 534 km
apogee height: 538 km
right ascension of ascending node: 74.5064°
argument of perigee: 227.4172°
revolutions per day: 15.09954939
mean anomaly at epoch: 266.3383°
orbit number at epoch: 54369

The dashed part of the orbit path shows where the satellite is in the earth's shadow,  

DLR